Terug naar catalogus

STARLINK-33924

ActiefCommunicatieSSO
NORAD 64149·PAYLOAD·🇺🇸 United States

Gelanceerd May 27, 2025 vanaf Vandenberg Space Force Base

Loading…

Volgende Passages (komende 24 uur)

TLE

VersSource: CelesTrak SupGP

Epoch: Sep 14, 2026, 22:27 UTC

1 64149C 25112D   26257.93590278  .00027185  00000+0  84408-3 0  2576
2 64149  97.2837 305.0559 0001248  91.5658 277.3945 15.33418495    19

Volg STARLINK-33924 in realtime met AllMySat

Download on the App Store